QPF
0.00 0.00 0.00 0.00 0.00 0.00 0.01 0.01 0.01 0.00 0.00 0.00 0.00 0.00 0.00 0.01 0.00 0.00 0.00 0.00 0.00 0.00 0.00 0.00 0.00 0.00 0.00 0.00 0.00 0.01 0.01 0.02 0.02 0.02 0.01 0.01 0.00 0.00 0.00 0.00 0.00 0.00 0.01 0.01
0.00 0.00 0.00 0.00 0.00 0.00 0.00 0.00 0.00 0.00 0.00 0.00 0.00 0.00 0.00 0.01 0.00 0.00 0.00 0.00 0.00 0.00 0.00 0.00 0.00 0.00 0.00 0.00 0.00 0.00 0.01 0.01 0.01 0.01 0.01 0.01 0.00 0.00 0.00 0.00 0.00 0.00 0.01 0.01
0.01 0.00 0.00 0.00 0.00 0.00 0.00 0.00 0.00 0.00 0.00 0.01 0.01 0.00 0.00 0.00 0.00 0.00 0.00 0.00 0.00 0.00 0.00 0.00 0.00 0.00 0.00 0.00 0.00 0.00 0.01 0.01 0.01 0.01 0.00 0.00 0.00 0.00 0.00 0.00 0.00 0.00 0.00 0.01
0.02 0.01 0.01 0.01 0.00 0.00 0.00 0.00 0.00 0.00 0.01 0.00 0.00 0.00 0.00 0.00 0.00 0.00 0.00 0.00 0.00 0.00 0.01 0.01 0.00 0.00 0.00 0.00 0.00 0.00 0.01 0.01 0.01 0.00 0.00 0.00 0.00 0.00 0.00 0.00 0.00 0.00 0.00 0.00
0.04 0.02 0.01 0.01 0.00 0.00 0.01 0.01 0.00 0.00 0.00 0.00 0.00 0.00 0.00 0.00 0.00 0.00 0.00 0.00 0.00 0.00 0.00 0.00 0.00 0.00 0.00 0.00 0.00 0.00 0.01 0.01 0.01 0.00 0.00 0.00 0.00 0.00 0.00 0.00 0.00 0.00 0.00 0.00
0.06 0.04 0.02 0.01 0.01 0.01 0.01 0.01 0.01 0.01 0.00 0.00 0.00 0.00 0.00 0.00 0.00 0.00 0.00 0.00 0.00 0.00 0.00 0.00 0.00 0.00 0.00 0.00 0.00 0.00 0.01 0.00 0.00 0.00 0.00 0.00 0.00 0.00 0.00 0.00 0.00 0.00 0.00 0.00
0.05 0.05 0.03 0.02 0.01 0.01 0.02 0.02 0.01 0.01 0.01 0.00 0.00 0.00 0.00 0.00 0.00 0.00 0.00 0.00 0.00 0.00 0.00 0.00 0.00 0.00 0.00 0.00 0.00 0.00 0.00 0.00 0.00 0.00 0.00 0.00 0.00 0.01 0.01 0.01 0.01 0.00 0.00 0.00
0.04 0.06 0.04 0.02 0.01 0.02 0.02 0.01 0.01 0.01 0.01 0.01 0.00 0.00 0.00 0.00 0.00 0.00 0.00 0.00 0.00 0.00 0.00 0.00 0.00 0.00 0.00 0.00 0.00 0.00 0.00 0.00 0.00 0.00 0.00 0.00 0.00 0.01 0.01 0.01 0.01 0.01 0.00 0.00
0.03 0.04 0.03 0.02 0.02 0.02 0.01 0.01 0.01 0.01 0.01 0.01 0.00 0.00 0.00 0.00 0.00 0.00 0.00 0.00 0.00 0.00 0.00 0.00 0.00 0.00 0.00 0.00 0.00 0.00 0.00 0.00 0.00 0.00 0.00 0.00 0.00 0.00 0.01 0.01 0.00 0.00 0.00 0.00
0.01 0.01 0.01 0.01 0.01 0.01 0.01 0.01 0.01 0.01 0.01 0.01 0.00 0.00 0.00 0.00 0.00 0.00 0.00 0.00 0.00 0.00 0.00 0.00 0.00 0.00 0.00 0.00 0.00 0.00 0.00 0.00 0.00 0.00 0.00 0.00 0.00 0.00 0.00 0.00 0.00 0.00 0.00 0.00
0.01 0.01 0.00 0.00 0.00 0.00 0.00 0.00 0.00 0.00 0.00 0.01 0.00 0.00 0.00 0.00 0.00 0.00 0.00 0.00 0.00 0.00 0.00 0.00 0.00 0.00 0.00 0.00 0.00 0.00 0.00 0.00 0.00 0.00 0.00 0.00 0.00 0.00 0.00 0.00 0.00 0.00 0.00 0.00
0.02 0.01 0.01 0.01 0.00 0.00 0.00 0.00 0.00 0.00 0.00 0.00 0.01 0.01 0.01 0.01 0.01 0.00 0.00 0.00 0.00 0.00 0.00 0.00 0.00 0.00 0.00 0.00 0.00 0.00 0.00 0.00 0.00 0.00 0.00 0.00 0.00 0.00 0.00 0.00 0.00 0.00 0.00 0.00
0.02 0.02 0.01 0.01 0.01 0.01 0.01 0.01 0.02 0.01 0.01 0.01 0.01 0.01 0.01 0.01 0.01 0.01 0.00 0.00 0.00 0.00 0.00 0.00 0.00 0.00 0.00 0.00 0.00 0.00 0.00 0.00 0.00 0.00 0.00 0.00 0.00 0.00 0.00 0.00 0.00 0.00 0.00 0.00
0.02 0.02 0.02 0.02 0.01 0.01 0.01 0.01 0.01 0.01 0.01 0.01 0.01 0.01 0.01 0.01 0.01 0.01 0.01 0.01 0.00 0.00 0.00 0.00 0.00 0.00 0.00 0.00 0.00 0.00 0.00 0.00 0.00 0.00 0.00 0.00 0.00 0.00 0.00 0.00 0.00 0.00 0.00 0.00
0.02 0.02 0.02 0.01 0.01 0.01 0.01 0.01 0.01 0.01 0.01 0.01 0.01 0.01 0.01 0.01 0.01 0.01 0.01 0.01 0.01 0.01 0.01 0.00 0.00 0.00 0.00 0.00 0.00 0.00 0.01 0.01 0.01 0.01 0.01 0.00 0.00 0.00 0.00 0.00 0.00 0.00 0.00 0.00
0.02 0.02 0.02 0.01 0.01 0.01 0.01 0.01 0.01 0.01 0.01 0.01 0.01 0.01 0.01 0.01 0.01 0.01 0.00 0.00 0.00 0.01 0.01 0.01 0.01 0.01 0.00 0.01 0.01 0.01 0.01 0.01 0.01 0.01 0.01 0.00 0.00 0.00 0.00 0.01 0.01 0.01 0.01 0.01
0.01 0.01 0.01 0.00 0.00 0.01 0.01 0.02 0.02 0.01 0.01 0.01 0.00 0.00 0.00 0.00 0.00 0.00 0.00 0.00 0.00 0.00 0.01 0.01 0.01 0.01 0.01 0.01 0.01 0.01 0.01 0.01 0.01 0.00 0.00 0.00 0.00 0.01 0.01 0.01 0.01 0.01 0.01 0.01
0.00 0.00 0.00 0.00 0.01 0.01 0.01 0.01 0.01 0.01 0.00 0.00 0.00 0.00 0.00 0.00 0.00 0.00 0.00 0.00 0.00 0.00 0.01 0.01 0.01 0.01 0.01 0.01 0.01 0.01 0.01 0.01 0.00 0.00 0.01 0.01 0.01 0.01 0.01 0.01 0.01 0.00 0.00 0.00
0.00 0.00 0.00 0.00 0.01 0.01 0.00 0.00 0.00 0.00 0.00 0.01 0.01 0.00 0.00 0.00 0.00 0.00 0.00 0.00 0.00 0.00 0.00 0.00 0.00 0.00 0.00 0.00 0.00 0.00 0.00 0.00 0.00 0.00 0.00 0.00 0.00 0.00 0.00 0.00 0.00 0.00 0.00 0.00
0.00 0.00 0.00 0.00 0.01 0.01 0.00 0.00 0.00 0.00 0.00 0.00 0.01 0.00 0.00 0.00 0.00 0.00 0.00 0.00 0.00 0.00 0.00 0.00 0.00 0.00 0.00 0.00 0.00 0.00 0.01 0.01 0.01 0.01 0.01 0.00 0.00 0.00 0.00 0.00 0.00 0.00 0.00 0.00
0.00 0.00 0.00 0.00 0.00 0.01 0.01 0.01 0.00 0.00 0.00 0.00 0.00 0.01 0.01 0.01 0.01 0.01 0.01 0.00 0.00 0.00 0.00 0.00 0.00 0.00 0.00 0.01 0.01 0.01 0.01 0.01 0.01 0.01 0.01 0.01 0.01 0.01 0.00 0.00 0.00 0.00 0.00 0.00
0.00 0.00 0.00 0.00 0.00 0.00 0.00 0.00 0.00 0.00 0.01 0.01 0.01 0.01 0.01 0.01 0.00 0.01 0.01 0.01 0.01 0.01 0.01 0.01 0.01 0.02 0.02 0.02 0.02 0.02 0.02 0.02 0.02 0.02 0.01 0.01 0.01 0.01 0.00 0.00 0.00 0.00 0.00 0.00
0.00 0.00 0.00 0.00 0.00 0.00 0.00 0.00 0.00 0.01 0.01 0.01 0.01 0.01 0.01 0.01 0.00 0.01 0.01 0.01 0.01 0.01 0.02 0.02 0.02 0.03 0.03 0.03 0.03 0.02 0.02 0.01 0.01 0.01 0.01 0.01 0.00 0.00 0.00 0.00 0.00 0.00 0.00 0.00
0.00 0.00 0.00 0.00 0.00 0.00 0.00 0.00 0.00 0.00 0.00 0.01 0.01 0.01 0.01 0.01 0.01 0.01 0.01 0.01 0.01 0.01 0.01 0.00 0.01 0.01 0.01 0.01 0.01 0.01 0.01 0.01 0.01 0.00 0.00 0.00 0.00 0.00 0.00 0.00 0.00 0.00 0.00 0.01
0.00 0.00 0.00 0.00 0.00 0.00 0.00 0.00 0.00 0.00 0.00 0.00 0.00 0.00 0.00 0.00 0.01 0.01 0.01 0.01 0.01 0.01 0.01 0.01 0.00 0.00 0.00 0.00 0.00 0.00 0.00 0.00 0.00 0.01 0.01 0.01 0.00 0.01 0.00 0.01 0.01 0.01 0.01 0.01
0.00 0.00 0.00 0.00 0.00 0.00 0.00 0.00 0.00 0.00 0.00 0.00 0.00 0.00 0.00 0.00 0.00 0.00 0.00 0.00 0.00 0.00 0.00 0.00 0.00 0.00 0.00 0.00 0.00 0.00 0.00 0.00 0.00 0.00 0.00 0.00 0.00 0.01 0.01 0.01 0.01 0.01 0.01 0.01
0.01 0.00 0.00 0.00 0.00 0.00 0.00 0.00 0.00 0.00 0.00 0.00 0.00 0.00 0.00 0.00 0.00 0.00 0.00 0.00 0.00 0.00 0.00 0.00 0.00 0.00 0.00 0.00 0.00 0.00 0.00 0.00 0.00 0.00 0.00 0.01 0.01 0.01 0.01 0.01 0.01 0.01 0.01 0.01
MSLP
1021.91 1021.81 1021.68 1021.55 1021.39 1021.19 1020.93 1020.59 1020.18 1019.69 1019.14 1018.56 1018.02 1017.54 1017.19 1016.99 1016.96 1017.09 1017.35 1017.72 1018.13 1018.54 1018.92 1019.24 1019.50 1019.69 1019.84 1019.98 1020.12 1020.28 1020.47 1020.69 1020.92 1021.15 1021.35 1021.52 1021.63 1021.69 1021.71 1021.67 1021.61 1021.53 1021.42 1021.30
1022.03 1021.81 1021.55 1021.27 1020.97 1020.66 1020.32 1019.95 1019.54 1019.10 1018.64 1018.17 1017.73 1017.36 1017.08 1016.91 1016.89 1016.99 1017.22 1017.53 1017.89 1018.27 1018.62 1018.95 1019.22 1019.44 1019.63 1019.80 1019.96 1020.14 1020.33 1020.54 1020.75 1020.96 1021.15 1021.31 1021.42 1021.48 1021.50 1021.47 1021.41 1021.32 1021.20 1021.07
1022.09 1021.73 1021.32 1020.89 1020.45 1020.02 1019.60 1019.21 1018.83 1018.45 1018.09 1017.73 1017.41 1017.14 1016.92 1016.80 1016.78 1016.85 1017.02 1017.27 1017.57 1017.90 1018.23 1018.55 1018.84 1019.09 1019.31 1019.52 1019.72 1019.91 1020.11 1020.32 1020.53 1020.73 1020.92 1021.08 1021.19 1021.27 1021.29 1021.28 1021.22 1021.12 1021.00 1020.85
1022.09 1021.59 1021.03 1020.45 1019.88 1019.35 1018.88 1018.48 1018.12 1017.82 1017.55 1017.32 1017.10 1016.91 1016.77 1016.67 1016.64 1016.68 1016.79 1016.98 1017.22 1017.50 1017.81 1018.11 1018.41 1018.69 1018.95 1019.19 1019.41 1019.63 1019.84 1020.06 1020.27 1020.47 1020.66 1020.82 1020.95 1021.04 1021.09 1021.08 1021.03 1020.93 1020.79 1020.62
1022.03 1021.40 1020.70 1020.00 1019.33 1018.73 1018.22 1017.82 1017.51 1017.27 1017.09 1016.95 1016.82 1016.71 1016.61 1016.54 1016.50 1016.51 1016.58 1016.71 1016.90 1017.14 1017.41 1017.71 1018.02 1018.32 1018.60 1018.86 1019.11 1019.34 1019.57 1019.78 1019.99 1020.19 1020.38 1020.55 1020.69 1020.79 1020.85 1020.86 1020.82 1020.72 1020.57 1020.37
1021.86 1021.12 1020.34 1019.55 1018.82 1018.18 1017.67 1017.28 1017.00 1016.82 1016.71 1016.64 1016.58 1016.53 1016.47 1016.41 1016.36 1016.35 1016.39 1016.47 1016.62 1016.84 1017.09 1017.39 1017.70 1018.02 1018.32 1018.60 1018.86 1019.10 1019.32 1019.52 1019.72 1019.91 1020.09 1020.26 1020.41 1020.52 1020.59 1020.60 1020.57 1020.46 1020.30 1020.09
1021.55 1020.76 1019.92 1019.11 1018.36 1017.72 1017.22 1016.85 1016.61 1016.47 1016.41 1016.38 1016.37 1016.34 1016.31 1016.26 1016.22 1016.20 1016.22 1016.29 1016.42 1016.63 1016.88 1017.18 1017.50 1017.83 1018.14 1018.43 1018.69 1018.92 1019.12 1019.31 1019.49 1019.66 1019.82 1019.97 1020.11 1020.22 1020.28 1020.30 1020.26 1020.15 1019.98 1019.75
1021.08 1020.27 1019.44 1018.64 1017.92 1017.31 1016.84 1016.50 1016.29 1016.18 1016.14 1016.14 1016.15 1016.14 1016.12 1016.09 1016.06 1016.05 1016.07 1016.15 1016.30 1016.51 1016.78 1017.08 1017.41 1017.75 1018.07 1018.35 1018.60 1018.82 1019.00 1019.16 1019.30 1019.44 1019.57 1019.70 1019.81 1019.90 1019.95 1019.95 1019.90 1019.78 1019.60 1019.36
1020.41 1019.65 1018.87 1018.13 1017.47 1016.92 1016.49 1016.19 1016.00 1015.91 1015.88 1015.89 1015.90 1015.91 1015.90 1015.89 1015.88 1015.90 1015.95 1016.06 1016.23 1016.47 1016.76 1017.08 1017.42 1017.76 1018.07 1018.35 1018.59 1018.78 1018.93 1019.06 1019.17 1019.26 1019.35 1019.44 1019.51 1019.56 1019.58 1019.56 1019.49 1019.36 1019.17 1018.92
1019.60 1018.91 1018.22 1017.58 1017.00 1016.52 1016.15 1015.89 1015.72 1015.64 1015.60 1015.61 1015.62 1015.64 1015.65 1015.67 1015.70 1015.76 1015.85 1016.01 1016.22 1016.48 1016.79 1017.13 1017.47 1017.81 1018.11 1018.38 1018.59 1018.76 1018.88 1018.97 1019.05 1019.10 1019.15 1019.18 1019.21 1019.22 1019.20 1019.14 1019.03 1018.88 1018.68 1018.43
1018.71 1018.12 1017.54 1017.01 1016.53 1016.13 1015.82 1015.59 1015.45 1015.36 1015.33 1015.33 1015.35 1015.38 1015.41 1015.47 1015.54 1015.65 1015.79 1015.99 1016.24 1016.53 1016.84 1017.18 1017.52 1017.83 1018.12 1018.36 1018.55 1018.69 1018.79 1018.86 1018.90 1018.92 1018.93 1018.92 1018.90 1018.86 1018.79 1018.68 1018.54 1018.36 1018.14 1017.89
1017.84 1017.37 1016.91 1016.49 1016.11 1015.79 1015.53 1015.34 1015.21 1015.13 1015.09 1015.09 1015.12 1015.17 1015.24 1015.34 1015.46 1015.61 1015.80 1016.02 1016.28 1016.57 1016.88 1017.19 1017.49 1017.78 1018.02 1018.23 1018.39 1018.52 1018.60 1018.65 1018.68 1018.68 1018.66 1018.62 1018.55 1018.46 1018.34 1018.18 1018.00 1017.78 1017.55 1017.29
1017.13 1016.77 1016.42 1016.09 1015.79 1015.54 1015.33 1015.17 1015.05 1014.98 1014.96 1014.97 1015.01 1015.09 1015.19 1015.32 1015.48 1015.66 1015.87 1016.10 1016.35 1016.61 1016.87 1017.13 1017.37 1017.59 1017.79 1017.96 1018.09 1018.20 1018.27 1018.32 1018.34 1018.34 1018.31 1018.24 1018.14 1018.01 1017.84 1017.64 1017.41 1017.16 1016.90 1016.64
1016.67 1016.40 1016.13 1015.88 1015.65 1015.45 1015.28 1015.14 1015.04 1014.98 1014.96 1014.99 1015.05 1015.16 1015.29 1015.45 1015.63 1015.82 1016.02 1016.23 1016.43 1016.62 1016.80 1016.97 1017.13 1017.28 1017.41 1017.52 1017.62 1017.72 1017.79 1017.85 1017.88 1017.89 1017.85 1017.78 1017.66 1017.49 1017.29 1017.04 1016.78 1016.49 1016.21 1015.94
1016.51 1016.29 1016.09 1015.90 1015.71 1015.54 1015.39 1015.27 1015.18 1015.14 1015.14 1015.18 1015.27 1015.39 1015.54 1015.72 1015.89 1016.07 1016.23 1016.38 1016.50 1016.59 1016.67 1016.74 1016.79 1016.84 1016.89 1016.96 1017.03 1017.10 1017.18 1017.26 1017.31 1017.33 1017.31 1017.23 1017.10 1016.92 1016.68 1016.41 1016.10 1015.79 1015.49 1015.21
1016.62 1016.45 1016.28 1016.11 1015.95 1015.80 1015.66 1015.55 1015.48 1015.44 1015.46 1015.51 1015.61 1015.75 1015.91 1016.07 1016.22 1016.35 1016.45 1016.51 1016.53 1016.52 1016.48 1016.42 1016.37 1016.32 1016.30 1016.30 1016.34 1016.41 1016.49 1016.58 1016.66 1016.70 1016.69 1016.62 1016.49 1016.29 1016.03 1015.73 1015.41 1015.07 1014.75 1014.47
1016.94 1016.78 1016.62 1016.47 1016.31 1016.17 1016.04 1015.93 1015.87 1015.84 1015.86 1015.92 1016.03 1016.16 1016.30 1016.43 1016.54 1016.61 1016.64 1016.60 1016.52 1016.39 1016.23 1016.06 1015.90 1015.77 1015.68 1015.64 1015.65 1015.70 1015.78 1015.88 1015.97 1016.03 1016.03 1015.97 1015.84 1015.63 1015.36 1015.04 1014.70 1014.35 1014.03 1013.73
1017.34 1017.18 1017.03 1016.87 1016.72 1016.57 1016.44 1016.34 1016.28 1016.25 1016.27 1016.33 1016.42 1016.53 1016.64 1016.73 1016.78 1016.78 1016.72 1016.59 1016.41 1016.18 1015.93 1015.67 1015.43 1015.23 1015.08 1015.00 1014.98 1015.02 1015.10 1015.20 1015.29 1015.35 1015.36 1015.30 1015.16 1014.95 1014.67 1014.35 1014.00 1013.65 1013.31 1013.02
1017.70 1017.54 1017.38 1017.22 1017.06 1016.92 1016.79 1016.69 1016.62 1016.59 1016.60 1016.64 1016.71 1016.78 1016.84 1016.87 1016.86 1016.79 1016.65 1016.45 1016.19 1015.89 1015.57 1015.26 1014.97 1014.72 1014.54 1014.43 1014.40 1014.41 1014.48 1014.56 1014.64 1014.68 1014.68 1014.61 1014.46 1014.24 1013.96 1013.64 1013.29 1012.95 1012.62 1012.34
1017.93 1017.76 1017.59 1017.44 1017.29 1017.15 1017.03 1016.93 1016.86 1016.82 1016.80 1016.81 1016.83 1016.85 1016.86 1016.83 1016.75 1016.62 1016.42 1016.17 1015.86 1015.52 1015.17 1014.83 1014.52 1014.26 1014.06 1013.93 1013.87 1013.87 1013.90 1013.95 1014.00 1014.01 1013.98 1013.89 1013.72 1013.50 1013.22 1012.91 1012.58 1012.25 1011.94 1011.67
1017.99 1017.82 1017.66 1017.52 1017.39 1017.26 1017.15 1017.05 1016.97 1016.91 1016.86 1016.83 1016.79 1016.76 1016.69 1016.60 1016.46 1016.28 1016.04 1015.75 1015.42 1015.08 1014.72 1014.38 1014.07 1013.81 1013.61 1013.47 1013.38 1013.34 1013.34 1013.34 1013.34 1013.30 1013.23 1013.10 1012.93 1012.70 1012.43 1012.14 1011.83 1011.53 1011.26 1011.01
1017.91 1017.76 1017.62 1017.50 1017.39 1017.28 1017.17 1017.08 1016.98 1016.89 1016.80 1016.72 1016.62 1016.51 1016.39 1016.22 1016.03 1015.80 1015.53 1015.23 1014.90 1014.56 1014.22 1013.90 1013.61 1013.36 1013.16 1013.00 1012.88 1012.80 1012.74 1012.68 1012.61 1012.53 1012.41 1012.25 1012.06 1011.83 1011.58 1011.32 1011.05 1010.80 1010.56 1010.35
1017.77 1017.64 1017.53 1017.44 1017.35 1017.26 1017.17 1017.06 1016.95 1016.82 1016.68 1016.53 1016.37 1016.19 1015.99 1015.77 1015.52 1015.25 1014.96 1014.65 1014.33 1014.01 1013.69 1013.39 1013.12 1012.88 1012.66 1012.48 1012.33 1012.20 1012.07 1011.95 1011.82 1011.67 1011.51 1011.32 1011.12 1010.90 1010.68 1010.46 1010.24 1010.04 1009.86 1009.69
1017.66 1017.57 1017.49 1017.43 1017.36 1017.28 1017.18 1017.06 1016.92 1016.75 1016.55 1016.34 1016.10 1015.84 1015.57 1015.28 1014.98 1014.68 1014.36 1014.05 1013.74 1013.43 1013.14 1012.86 1012.59 1012.35 1012.12 1011.91 1011.72 1011.52 1011.33 1011.14 1010.95 1010.75 1010.54 1010.34 1010.14 1009.94 1009.75 1009.58 1009.42 1009.29 1009.16 1009.04
1017.67 1017.61 1017.56 1017.51 1017.45 1017.37 1017.26 1017.11 1016.92 1016.70 1016.44 1016.15 1015.84 1015.51 1015.16 1014.82 1014.47 1014.13 1013.80 1013.48 1013.17 1012.87 1012.59 1012.32 1012.05 1011.80 1011.55 1011.30 1011.05 1010.80 1010.55 1010.30 1010.05 1009.81 1009.58 1009.36 1009.17 1008.99 1008.85 1008.73 1008.63 1008.55 1008.48 1008.41
1017.84 1017.79 1017.75 1017.70 1017.63 1017.53 1017.38 1017.19 1016.95 1016.66 1016.34 1015.98 1015.60 1015.20 1014.80 1014.40 1014.01 1013.64 1013.29 1012.96 1012.65 1012.35 1012.07 1011.79 1011.52 1011.25 1010.97 1010.69 1010.40 1010.10 1009.80 1009.50 1009.21 1008.93 1008.68 1008.47 1008.28 1008.14 1008.03 1007.95 1007.90 1007.87 1007.84 1007.81
1018.15 1018.09 1018.03 1017.96 1017.85 1017.71 1017.51 1017.26 1016.96 1016.61 1016.22 1015.80 1015.36 1014.91 1014.46 1014.03 1013.61 1013.22 1012.85 1012.52 1012.20 1011.90 1011.61 1011.33 1011.05 1010.76 1010.45 1010.14 1009.81 1009.47 1009.13 1008.80 1008.49 1008.20 1007.94 1007.72 1007.55 1007.42 1007.34 1007.29 1007.27 1007.27 1007.27 1007.25
Thickness
5514 5519 5517 5522 5525 5518 5515 5517 5518 5530 5529 5547 5543 5539 5537 5534 5531 5529 5528 5528 5527 5525 5522 5520 5518 5517 5517 5515 5514 5513 5511 5510 5510 5509 5508 5508 5506 5505 5504 5503 5502 5501 5500 5500
5506 5512 5509 5514 5521 5519 5520 5521 5520 5525 5533 5539 5533 5530 5528 5526 5524 5523 5523 5522 5520 5518 5516 5513 5511 5511 5510 5508 5507 5505 5503 5502 5502 5501 5500 5499 5497 5496 5494 5493 5492 5490 5489 5488
5494 5500 5503 5512 5525 5521 5518 5519 5520 5524 5533 5528 5526 5525 5525 5522 5518 5516 5515 5514 5512 5510 5508 5506 5504 5503 5501 5500 5498 5496 5495 5493 5492 5491 5490 5489 5488 5486 5484 5483 5481 5479 5478 5476
5480 5487 5495 5529 5528 5523 5519 5519 5513 5516 5518 5520 5520 5519 5516 5514 5511 5509 5508 5507 5505 5502 5499 5497 5495 5494 5492 5491 5489 5487 5485 5483 5482 5481 5480 5479 5477 5475 5474 5472 5470 5469 5467 5466
5471 5475 5492 5510 5513 5506 5506 5509 5508 5507 5509 5508 5509 5509 5507 5507 5503 5502 5501 5498 5496 5494 5491 5488 5486 5484 5482 5480 5478 5476 5475 5474 5473 5471 5469 5467 5466 5464 5462 5460 5459 5457 5456 5454
5464 5472 5486 5502 5502 5499 5502 5500 5502 5497 5498 5496 5495 5494 5501 5500 5495 5492 5490 5488 5485 5483 5481 5478 5476 5474 5472 5469 5467 5466 5466 5464 5463 5461 5459 5457 5455 5453 5450 5448 5447 5445 5443 5442
5458 5464 5475 5483 5485 5488 5488 5492 5490 5486 5486 5483 5483 5487 5487 5486 5484 5482 5480 5478 5476 5473 5470 5468 5466 5463 5461 5459 5457 5457 5455 5454 5452 5450 5448 5447 5444 5441 5439 5436 5434 5432 5430 5429
5447 5449 5465 5471 5468 5469 5473 5474 5475 5475 5474 5472 5472 5473 5472 5472 5470 5468 5467 5466 5464 5461 5458 5456 5454 5452 5450 5448 5448 5446 5444 5442 5440 5438 5437 5435 5431 5429 5426 5424 5421 5419 5417 5415
5447 5456 5457 5454 5456 5457 5457 5459 5461 5460 5461 5460 5459 5459 5459 5457 5455 5454 5453 5452 5451 5448 5446 5443 5442 5440 5438 5437 5436 5434 5431 5428 5426 5425 5423 5421 5418 5416 5413 5410 5408 5406 5404 5403
5428 5439 5441 5440 5441 5442 5443 5444 5446 5447 5447 5447 5447 5446 5444 5443 5442 5441 5440 5438 5437 5435 5432 5431 5429 5427 5426 5425 5423 5421 5418 5416 5414 5412 5410 5407 5405 5403 5400 5398 5396 5394 5393 5392
5415 5422 5424 5428 5428 5429 5430 5431 5432 5432 5432 5432 5432 5431 5430 5430 5429 5428 5427 5425 5423 5422 5420 5419 5417 5415 5414 5412 5411 5408 5406 5403 5401 5399 5397 5395 5393 5390 5389 5387 5385 5384 5382 5380
5410 5414 5410 5414 5416 5416 5417 5417 5418 5418 5417 5418 5417 5417 5416 5415 5415 5414 5413 5411 5409 5408 5407 5406 5405 5403 5402 5400 5398 5396 5394 5391 5389 5387 5385 5382 5380 5378 5378 5376 5376 5374 5372 5370
5399 5400 5399 5401 5402 5402 5401 5403 5404 5403 5404 5404 5404 5403 5402 5401 5401 5400 5399 5398 5397 5395 5394 5393 5391 5391 5390 5388 5386 5383 5382 5380 5377 5375 5373 5370 5368 5367 5366 5366 5364 5362 5360 5359
5383 5382 5383 5385 5386 5387 5387 5388 5388 5388 5388 5388 5388 5388 5387 5386 5386 5385 5385 5384 5384 5382 5381 5379 5378 5378 5378 5376 5374 5372 5370 5369 5366 5364 5361 5359 5357 5355 5353 5351 5351 5350 5349 5347
5369 5369 5370 5371 5371 5371 5371 5371 5371 5372 5373 5373 5373 5372 5372 5371 5371 5371 5371 5370 5369 5368 5367 5366 5366 5366 5365 5363 5361 5360 5358 5356 5354 5352 5350 5347 5345 5343 5340 5338 5337 5337 5336 5335
5354 5354 5355 5355 5356 5357 5356 5356 5356 5357 5358 5359 5359 5359 5359 5358 5358 5357 5357 5356 5354 5354 5354 5353 5353 5354 5353 5351 5349 5347 5346 5346 5343 5341 5338 5336 5334 5331 5329 5327 5326 5325 5324 5323
5338 5340 5341 5340 5341 5342 5342 5343 5343 5344 5344 5345 5346 5346 5346 5345 5344 5344 5344 5343 5342 5342 5342 5341 5341 5341 5340 5338 5336 5335 5334 5333 5332 5329 5327 5325 5323 5321 5319 5316 5315 5314 5313 5311
5324 5326 5327 5327 5327 5329 5330 5330 5330 5331 5331 5333 5333 5333 5332 5332 5332 5332 5331 5330 5330 5330 5330 5330 5330 5329 5328 5326 5325 5324 5322 5321 5319 5317 5316 5314 5312 5310 5307 5305 5304 5302 5301 5300
5311 5313 5314 5315 5315 5316 5316 5317 5318 5318 5319 5319 5319 5319 5319 5319 5319 5319 5318 5317 5317 5318 5320 5319 5319 5318 5317 5316 5314 5313 5311 5309 5308 5306 5304 5303 5302 5299 5297 5295 5293 5291 5290 5289
5299 5301 5302 5303 5304 5304 5304 5305 5306 5306 5307 5306 5306 5306 5306 5307 5306 5306 5306 5306 5307 5307 5309 5309 5308 5307 5306 5305 5304 5302 5300 5298 5296 5295 5293 5291 5289 5288 5286 5285 5283 5281 5280 5280
5288 5289 5290 5291 5292 5293 5293 5293 5293 5294 5295 5294 5294 5294 5294 5295 5294 5294 5294 5296 5298 5297 5297 5299 5298 5297 5296 5295 5294 5291 5290 5288 5286 5284 5283 5281 5280 5279 5277 5276 5274 5273 5272 5271
5277 5278 5279 5280 5280 5281 5281 5281 5281 5282 5282 5282 5283 5283 5282 5283 5283 5284 5285 5285 5288 5288 5287 5287 5286 5286 5286 5286 5284 5282 5280 5278 5277 5275 5274 5272 5271 5270 5268 5267 5265 5265 5264 5263
5267 5268 5269 5269 5269 5270 5270 5271 5271 5272 5272 5272 5273 5273 5273 5273 5273 5273 5276 5277 5277 5278 5277 5277 5277 5278 5278 5276 5274 5272 5271 5269 5268 5267 5265 5264 5262 5261 5260 5259 5258 5258 5257 5256
5258 5258 5259 5259 5258 5258 5260 5262 5262 5263 5262 5262 5263 5263 5263 5263 5264 5264 5265 5267 5268 5268 5267 5268 5269 5269 5268 5266 5264 5262 5261 5260 5259 5258 5257 5256 5254 5253 5252 5252 5251 5251 5251 5250
5248 5248 5248 5248 5249 5250 5252 5252 5252 5253 5253 5254 5255 5255 5254 5254 5255 5256 5256 5256 5258 5258 5258 5258 5259 5259 5257 5255 5254 5253 5252 5251 5250 5249 5248 5247 5247 5246 5246 5245 5245 5245 5245 5244
5238 5238 5239 5239 5240 5241 5243 5243 5244 5245 5245 5246 5247 5246 5246 5246 5246 5247 5247 5248 5248 5248 5248 5248 5247 5248 5247 5246 5245 5245 5244 5243 5242 5242 5241 5240 5240 5239 5239 5239 5239 5239 5239 5239
5230 5229 5230 5231 5233 5234 5234 5234 5235 5236 5236 5237 5238 5239 5238 5238 5238 5238 5239 5239 5239 5239 5239 5239 5239 5238 5238 5237 5237 5237 5236 5235 5235 5234 5234 5233 5233 5233 5233 5233 5234 5234 5234 5234